Track STARLINK-3308 now! 10-day predictions STARLINK-3308 is classified as:
1 50846U 22001AV 22143.91668981 .00013976 00000-0 89445-3 0 9997 2 50846 53.2172 280.0918 0002418 28.4331 319.0667 15.08840842 1305